Weather History for KMMU - November, 2012

Change the Weather History Date:

Sunday, November 11, 2012

  Actual Average Record
Temperature  
Mean Temperature 48 °F -  
Max Temperature 64 °F 55 °F 72 °F (1985)
Min Temperature 33 °F 35 °F 15 °F (1954)
Degree Days  
Heating Degree Days 16    
Moisture  
Dew Point 40 °F    
Average Humidity 91    
Maximum Humidity 100    
Minimum Humidity 49    
Precipitation  
Precipitation 0.00 in - - ()
Sea Level Pressure  
Sea Level Pressure 30.45 in    
Wind  
Wind Speed 1 mph (SSW)    
Max Wind Speed 8 mph    
Max Gust Speed -    
Visibility 6 miles    
Events Fog    
Averages and records for this station are not official NWS values.
T = Trace of Precipitation, MM = Missing Value Source: NWS Daily Summary

Daily Weather History Graph

Daily Weather History Graph

Search for Another Location

Airport or City:

Trip Planner

Search our weather history database for the weather conditions in past years. The results will help you decide how hot, cold, wet, or windy it might be!

Date:

Astronomy

Nov. 11, 2012 Rise Set
Actual Time 6:40 AM EST 4:42 PM EST
Civil Twilight 6:11 AM EST 5:11 PM EST
Nautical Twilight 5:38 AM EST 5:44 PM EST
Astronomical Twilight 5:06 AM EST 6:16 PM EST
Moon 3:50 AM EST (11/11) 3:05 PM EST (11/11)
Length of Visible Light 11h 00m
Length of Day
10h 02m
Waning Crescent, 7% of the Moon is Illuminated
Nov 11
Waning Crescent
Nov 13
New
Nov 20
First Quarter
Nov 28
Full
Dec 6
Last Quarter

Hourly Weather History & Observations

Time (EST) Temp. Dew Point Humidity Pressure Visibility Wind Dir Wind Speed Gust Speed Precip Events Conditions
12:15 AM 39.2 °F 39.2 °F 100% 30.43 in 7.0 mi Calm Calm - N/A   Overcast
12:35 AM 39.2 °F 39.2 °F 100% 30.43 in 7.0 mi Calm Calm - N/A   Overcast
12:55 AM 39.2 °F 39.2 °F 100% 30.42 in 7.0 mi Calm Calm - N/A   Overcast
1:15 AM 39.2 °F 39.2 °F 100% 30.42 in 7.0 mi Calm Calm - N/A   Overcast
1:35 AM 39.2 °F 37.4 °F 93% 30.42 in 7.0 mi Calm Calm - N/A   Overcast
1:55 AM 39.2 °F 39.2 °F 100% 30.41 in 7.0 mi Calm Calm - N/A   Overcast
2:15 AM 39.2 °F 37.4 °F 93% 30.42 in 10.0 mi Calm Calm - N/A   Mostly Cloudy
2:35 AM 37.4 °F 37.4 °F 100% 30.42 in 7.0 mi Calm Calm - N/A   Scattered Clouds
2:55 AM 35.6 °F 35.6 °F 100% 30.42 in 5.0 mi Calm Calm - N/A   Clear
3:15 AM 35.6 °F 35.6 °F 100% 30.42 in 7.0 mi Calm Calm - N/A   Clear
3:35 AM 33.8 °F 33.8 °F 100% 30.43 in 4.0 mi Calm Calm - N/A   Clear
3:55 AM 33.8 °F 33.8 °F 100% 30.44 in 7.0 mi Calm Calm - N/A   Scattered Clouds
4:15 AM 33.8 °F 33.8 °F 100% 30.44 in 1.8 mi Calm Calm - N/A   Mostly Cloudy
4:35 AM 33.8 °F 33.8 °F 100% 30.45 in 4.0 mi Calm Calm - N/A   Mostly Cloudy
4:55 AM 33.8 °F 33.8 °F 100% 30.45 in 5.0 mi Calm Calm - N/A   Mostly Cloudy
5:15 AM 33.8 °F 33.8 °F 100% 30.45 in 4.0 mi Calm Calm - N/A   Mostly Cloudy
5:35 AM 33.8 °F 33.8 °F 100% 30.45 in 7.0 mi Calm Calm - N/A   Clear
6:45 AM 33.8 °F 33.8 °F 100% 30.47 in 4.0 mi Calm Calm - N/A   Scattered Clouds
7:25 AM 35.6 °F 33.8 °F 93% 30.49 in 4.0 mi Calm Calm - N/A   Overcast
7:45 AM 37.4 °F 37.4 °F 100% 30.50 in 4.0 mi Calm Calm - N/A   Overcast
8:45 AM 42.8 °F 41.0 °F 93% 30.51 in 4.0 mi Calm Calm - N/A   Mostly Cloudy
9:45 AM 50.0 °F 44.6 °F 82% 30.51 in 4.0 mi Calm Calm - N/A   Mostly Cloudy
10:25 AM 53.6 °F 48.2 °F 82% 30.50 in 5.0 mi Calm Calm - N/A   Haze
10:45 AM 53.6 °F 48.2 °F 82% 30.50 in 5.0 mi WSW 5.8 mph - N/A   Haze
11:45 AM 59.0 °F 46.4 °F 63% 30.47 in 7.0 mi Calm Calm - N/A   Clear
12:45 PM 62.6 °F 46.4 °F 55% 30.44 in 7.0 mi WSW 5.8 mph - N/A   Clear
1:45 PM 62.6 °F 46.4 °F 55% 30.43 in 10.0 mi SSW 5.8 mph - N/A   Clear
2:45 PM 64.4 °F 44.6 °F 49% 30.43 in 10.0 mi SSW 8.1 mph - N/A   Clear
3:45 PM 64.4 °F 44.6 °F 49% 30.44 in 10.0 mi SSW 5.8 mph - N/A   Clear
4:45 PM 59.0 °F 48.2 °F 67% 30.44 in 10.0 mi SE 6.9 mph - N/A   Clear
5:45 PM 50.0 °F 44.6 °F 82% 30.45 in 10.0 mi Calm Calm - N/A   Clear
6:45 PM 48.2 °F 44.6 °F 87% 30.46 in 7.0 mi Calm Calm - N/A   Clear
7:45 PM 44.6 °F 42.8 °F 93% 30.48 in 7.0 mi Calm Calm - N/A   Clear
9:45 PM 41.0 °F 39.2 °F 93% 30.49 in 7.0 mi Calm Calm - N/A   Clear
9:55 PM 41.0 °F 41.0 °F 100% 30.48 in 1.0 mi Calm Calm - N/A   Mostly Cloudy
10:15 PM 39.2 °F 39.2 °F 100% 30.47 in 2.0 mi Calm Calm - N/A   Clear
10:35 PM 37.4 °F 37.4 °F 100% 30.48 in 0.8 mi Calm Calm - N/A   Overcast
10:55 PM 37.4 °F 37.4 °F 100% 30.47 in 0.5 mi Calm Calm - N/A Fog Fog
11:15 PM 39.2 °F 39.2 °F 100% 30.47 in 7.0 mi Calm Calm - N/A   Mostly Cloudy
11:35 PM 37.4 °F 37.4 °F 100% 30.47 in 4.0 mi Calm Calm - N/A   Scattered Clouds
11:55 PM 39.2 °F 39.2 °F 100% 30.46 in 0.2 mi Calm Calm - N/A Fog Fog